WZZ801 EPWA-EPGD

Flight info

Callsign WZZ801
Flight time N/A
Altitude 30000
Route OLILA L621 RILAB DCT OSLOG
Aircraft A321/M-SDE3FGHIRWY/LB1

Departure

Time 2026-05-07 15:35
Airport Warsaw Chopin Airport (EPWA)

Arrival

Time N/A
Airport Gdańsk Lech Wałęsa Airport (EPGD)
Time Latitude Longitude Altitude Speed Heading
2026-05-07 15:03 52.17688 20.96266 335 ft 0 kts 242°
2026-05-07 15:30 52.17683 20.96249 335 ft 5 kts 242°
2026-05-07 15:31 52.17647 20.96198 336 ft 12 kts 194°
2026-05-07 15:31 52.17559 20.96250 335 ft 17 kts 152°
2026-05-07 15:31 52.17471 20.96326 334 ft 19 kts 152°
2026-05-07 15:31 52.17376 20.96410 335 ft 20 kts 152°
2026-05-07 15:32 52.17272 20.96501 334 ft 22 kts 151°
2026-05-07 15:32 52.17161 20.96598 334 ft 21 kts 152°
2026-05-07 15:32 52.17038 20.96703 331 ft 23 kts 152°
2026-05-07 15:32 52.16913 20.96814 330 ft 24 kts 151°
2026-05-07 15:33 52.16759 20.96950 333 ft 25 kts 153°
2026-05-07 15:33 52.16644 20.97121 336 ft 24 kts 117°
2026-05-07 15:33 52.16576 20.97362 337 ft 24 kts 114°
2026-05-07 15:33 52.16505 20.97617 337 ft 25 kts 115°
2026-05-07 15:34 52.16450 20.97785 336 ft 16 kts 146°
2026-05-07 15:34 52.16354 20.97768 334 ft 19 kts 206°
2026-05-07 15:34 52.16312 20.97650 334 ft 16 kts 279°
2026-05-07 15:34 52.16349 20.97511 337 ft 21 kts 295°
2026-05-07 15:35 52.16437 20.97202 337 ft 67 kts 295°
2026-05-07 15:35 52.16670 20.96373 338 ft 136 kts 295°
2026-05-07 15:35 52.17006 20.95176 942 ft 147 kts 295°
2026-05-07 15:35 52.17330 20.94029 1699 ft 144 kts 295°
2026-05-07 15:36 52.17654 20.92893 2304 ft 144 kts 295°
2026-05-07 15:36 52.17990 20.91708 2645 ft 157 kts 295°
2026-05-07 15:36 52.18416 20.90486 3021 ft 169 kts 309°
2026-05-07 15:36 52.19122 20.89570 3370 ft 184 kts 330°
2026-05-07 15:37 52.20029 20.88908 3774 ft 196 kts 335°
2026-05-07 15:37 52.21184 20.88126 4239 ft 212 kts 332°
2026-05-07 15:37 52.22352 20.86902 4713 ft 228 kts 319°
2026-05-07 15:37 52.23378 20.85342 5231 ft 244 kts 313°
2026-05-07 15:38 52.24442 20.83540 5822 ft 260 kts 312°
2026-05-07 15:38 52.25251 20.82166 6382 ft 267 kts 315°
2026-05-07 15:38 52.26427 20.80654 7215 ft 272 kts 324°
2026-05-07 15:38 52.27998 20.79009 8255 ft 276 kts 326°
2026-05-07 15:39 52.29326 20.77664 9091 ft 280 kts 326°
2026-05-07 15:39 52.30969 20.75978 10089 ft 286 kts 325°
2026-05-07 15:39 52.32654 20.74210 10916 ft 298 kts 324°
2026-05-07 15:39 52.34381 20.72366 11511 ft 316 kts 324°
2026-05-07 15:40 52.36248 20.70355 12178 ft 332 kts 324°
2026-05-07 15:40 52.38175 20.68270 13110 ft 337 kts 324°
2026-05-07 15:40 52.40071 20.66215 14072 ft 340 kts 324°
2026-05-07 15:40 52.42007 20.64108 15001 ft 344 kts 324°
2026-05-07 15:41 52.43538 20.62439 15707 ft 347 kts 324°
2026-05-07 15:41 52.45462 20.60337 16565 ft 350 kts 324°
2026-05-07 15:41 52.47480 20.58129 17431 ft 353 kts 324°
2026-05-07 15:41 52.49491 20.55925 18260 ft 357 kts 324°
2026-05-07 15:42 52.51487 20.53735 19052 ft 360 kts 324°
2026-05-07 15:42 52.53537 20.51482 19836 ft 363 kts 324°
2026-05-07 15:42 52.55355 20.49482 20504 ft 366 kts 324°
2026-05-07 15:42 52.57401 20.47230 21305 ft 366 kts 324°
2026-05-07 15:43 52.59447 20.44976 22238 ft 362 kts 324°
2026-05-07 15:43 52.61514 20.42695 23130 ft 359 kts 324°
2026-05-07 15:43 52.63559 20.40434 23946 ft 357 kts 324°
2026-05-07 15:43 52.65554 20.38227 24711 ft 355 kts 324°
2026-05-07 15:44 52.67252 20.36346 25347 ft 353 kts 324°
2026-05-07 15:44 52.69163 20.34113 26018 ft 351 kts 320°
2026-05-07 15:44 52.70329 20.32540 26441 ft 350 kts 317°
2026-05-07 15:44 52.72052 20.29826 27120 ft 348 kts 312°
2026-05-07 15:45 52.73657 20.26938 27793 ft 346 kts 311°
2026-05-07 15:45 52.75236 20.24017 28392 ft 345 kts 310°
2026-05-07 15:45 52.76813 20.21094 28880 ft 348 kts 311°
2026-05-07 15:45 52.78351 20.18244 29345 ft 350 kts 311°
2026-05-07 15:46 52.81536 20.12330 29969 ft 357 kts 310°
2026-05-07 15:46 52.83122 20.09226 29976 ft 357 kts 309°
2026-05-07 15:47 52.85542 20.04405 29971 ft 358 kts 310°
2026-05-07 15:47 52.87863 19.99773 29979 ft 369 kts 310°
2026-05-07 15:48 52.90166 19.95187 29983 ft 369 kts 310°
2026-05-07 15:48 52.92535 19.90467 29985 ft 369 kts 310°
2026-05-07 15:49 52.92892 19.89757 29985 ft 369 kts 310°
2026-05-07 15:49 52.94870 19.85815 29986 ft 352 kts 309°
2026-05-07 15:50 52.97569 19.80419 29983 ft 342 kts 309°
2026-05-07 15:50 53.00427 19.74693 29985 ft 349 kts 309°
2026-05-07 15:51 53.03456 19.68619 29981 ft 356 kts 310°
2026-05-07 15:51 53.06784 19.62852 29981 ft 358 kts 317°
2026-05-07 15:52 53.09872 19.58632 29880 ft 360 kts 322°
2026-05-07 15:52 53.11553 19.56563 29669 ft 359 kts 323°
2026-05-07 15:52 53.13438 19.54277 29434 ft 357 kts 323°
2026-05-07 15:52 53.14557 19.52920 29292 ft 356 kts 323°
2026-05-07 15:53 53.16297 19.50804 29046 ft 354 kts 322°
2026-05-07 15:53 53.18266 19.48398 28734 ft 352 kts 322°
2026-05-07 15:53 53.20185 19.46044 28280 ft 353 kts 322°
2026-05-07 15:53 53.22091 19.43701 27737 ft 354 kts 322°
2026-05-07 15:54 53.24008 19.41340 27161 ft 356 kts 322°
2026-05-07 15:54 53.25928 19.38970 26578 ft 358 kts 322°
2026-05-07 15:54 53.27333 19.37233 26138 ft 360 kts 322°